NOAA 16 DEB

Satellite information

Favourite Embed

Satellite Type and Status

DEBRISIN ORBIT

Key statistics

Satellite NOAA 16 DEB at a glance.

Uptime

9168

Days in orbit

Revolutions

≈ 14.2

Per day

Orbit

SSO

Sun Synchronous Orbit

Inclination

98.7

Latest

Satellite identification and parameters

Extended collection of information and parameters for NOAA 16 DEB.

Object identification

Identified? True

Debris? True

Object name: NOAA 16 DEB

International designator: 2000-055DH

Object number (NORAD): 41204

Object ID (CCSDS): 41204

Country: UNITED STATES OF AMERICA (US)

Current information (Y/N): Y

RCS size: SMALL

Orbital parameters

Period: 101.415 minutes

Inclination: 98.7229 deg

SMA: 7203.802 km

Apoapsis: 842.177 km

Periapsis: 809.158 km

RAAN: 1.4623 deg

Eccentricy: 0.00229178

Argument of periapsis: 176.2041 deg

Mean anomaly: 183.9313 deg

Mean motion: 14.19907678 rev/day

Mean motion (dot): 0.00003486 rev/day2

B* drag term: 0.0016576254 1/REarth

Two-line elements (TLE)

Creation date: Oct. 27, 2025, 2:46 a.m.

Reference frame: TEME

Reference center: EARTH

Epoch: Oct. 26, 2025, 10:51 a.m. UTC

TLE line 0: 0 NOAA 16 DEB

TLE line 1: 1 41204U 00055DH 25299.45250326 .00003486 00000-0 16576-2 0 9993

TLE line 2: 2 41204 98.7229 1.4623 0022918 176.2041 183.9313 14.19907678509137

Live tracking on map

Real-time ground track for satellite NOAA 16 DEB.

In-orbit conjunctions

A list of the most updated potential collisions computed for object NOAA 16 DEB.

Target Orbit TCA Probability of collision Miss distance Type
CZ-6A DEB LEO 2025-04-01 05:00:29 0.0001131014 91.0 (m) DEBRIS
SL-3 R/B LEO 2024-08-15 05:39:35 0.0001475377 835.0 (m) ROCKET BODY
NOAA 9 SSO 2024-06-03 23:16:06 0.0001505905 177.0 (m) PAYLOAD

Associated space launch

The NOAA K, L and M POES satellites begin the fifth generation of improved environmental monitoring in support of NOAA missions. The instrument payload has significant improvements and additions/deletions. The instrument changes have effected the spacecraft subsystems and data formats.

NOAA 16 DEB was lifted into orbit during the mission ‘Titan II SLV | NOAA 16’, on board a Titan II SLV space rocket.

The launch took place on Sept. 21, 2000, 10:22 a.m. from Space Launch Complex 4W.

For more information about the launch, click the button.

Launch to space Titan II SLV | NOAA 16
Titan II SLV | NOAA 16

Agency: N/A

Status: Launch Successful

Launch date: Sept. 21, 2000, 10:22 a.m. UTC

Rocket: Titan II SLV

Launch pad: Space Launch Complex 4W

Location: Vandenberg SFB, CA, USA

...

Latest news about this satellite

There are no fresh news available about this satellite. Check back as we update our databases every day.


Newsletter sign-up

Weekly statistics, charts and insights to help you stay on top of the space industry.